• In Belarus
  • List of Countries
  • For 7 days
  • Water Temperature
  • Weather Map
  • Weather Widgets
  • user-avatar
    Login

    Hourly Weather Graz

    Today, 26 February, Wednesday

    Time Temperature Precipitation Wind Pressure Humidity
    00:00 +8°C° 0.1 mm 1 mps 712 mmHg 87%
    01:00 +8°C° 0 mm 1 mps 712 mmHg 87%
    02:00 +8°C° 1.3 mm 1 mps 711 mmHg 89%
    03:00 +7°C° 1.3 mm 1 mps 710 mmHg 91%
    04:00 +7°C° 1.3 mm 1 mps 710 mmHg 94%
    05:00 +6°C° 2.4 mm 1 mps 709 mmHg 94%
    06:00 +6°C° 2.4 mm 1 mps 709 mmHg 93%
    07:00 +5°C° 0 mm 2 mps 709 mmHg 95%
    08:00 +4°C° 2 mm 2 mps 710 mmHg 93%
    09:00 +4°C° 2 mm 2 mps 710 mmHg 92%
    10:00 +4°C° 2 mm 2 mps 710 mmHg 90%
    11:00 +5°C° 1.2 mm 1 mps 710 mmHg 87%
    12:00 +5°C° 1.2 mm 1 mps 710 mmHg 83%
    13:00 +5°C° 1.2 mm 1 mps 711 mmHg 80%
    14:00 +5°C° 0.4 mm 1 mps 711 mmHg 82%
    15:00 +4°C° 0.4 mm 1 mps 711 mmHg 84%
    16:00 +4°C° 0.4 mm 1 mps 711 mmHg 86%
    17:00 +4°C° 0.1 mm 1 mps 711 mmHg 87%
    18:00 +3°C° 0.1 mm 1 mps 712 mmHg 89%
    19:00 +3°C° 0.1 mm 1 mps 712 mmHg 91%
    20:00 +2°C° 0.1 mm 1 mps 713 mmHg 89%
    21:00 +2°C° 0.1 mm 1 mps 713 mmHg 87%
    22:00 +2°C° 0.1 mm 1 mps 713 mmHg 86%
    23:00 -1°C° 0 mm 2 mps 714 mmHg 84%

    Tomorrow, 27 February, Thursday

    Time Temperature Precipitation Wind Pressure Humidity
    00:00 -1°C° 0 mm 2 mps 714 mmHg 83%
    01:00 -1°C° 0 mm 2 mps 715 mmHg 81%
    02:00 -2°C° 0 mm 2 mps 715 mmHg 81%
    03:00 -2°C° 0 mm 2 mps 715 mmHg 81%
    04:00 -2°C° 0 mm 2 mps 715 mmHg 81%
    05:00 -2°C° 0 mm 2 mps 716 mmHg 81%
    06:00 -2°C° 0 mm 2 mps 717 mmHg 81%
    07:00 -3°C° 0 mm 2 mps 717 mmHg 81%
    08:00 -1°C° 0 mm 2 mps 718 mmHg 73%
    09:00 +2°C° 0 mm 2 mps 718 mmHg 66%
    10:00 +4°C° 0 mm 2 mps 718 mmHg 59%
    11:00 +5°C° 0 mm 2 mps 718 mmHg 56%
    12:00 +5°C° 0 mm 2 mps 718 mmHg 54%
    13:00 +6°C° 0 mm 2 mps 718 mmHg 51%
    14:00 +6°C° 0 mm 2 mps 717 mmHg 53%
    15:00 +6°C° 0 mm 2 mps 716 mmHg 55%
    16:00 +5°C° 0 mm 2 mps 715 mmHg 57%
    17:00 +4°C° 0 mm 2 mps 714 mmHg 62%
    18:00 +3°C° 0 mm 2 mps 714 mmHg 68%
    19:00 +2°C° 0 mm 2 mps 713 mmHg 74%
    20:00 +2°C° 0 mm 2 mps 712 mmHg 75%
    21:00 +1°C° 0 mm 2 mps 712 mmHg 76%
    22:00 +1°C° 0 mm 2 mps 711 mmHg 77%
    23:00 +1°C° 0 mm 2 mps 711 mmHg 78%

    Day after tomorrow, 28 February, Friday

    Time Temperature Precipitation Wind Pressure Humidity
    00:00 -1°C° 0 mm 2 mps 711 mmHg 79%
    01:00 -1°C° 0 mm 2 mps 711 mmHg 80%
    02:00 -1°C° 0 mm 2 mps 711 mmHg 78%
    03:00 -1°C° 0 mm 3 mps 712 mmHg 77%
    04:00 -1°C° 0 mm 3 mps 712 mmHg 76%
    05:00 -1°C° 0 mm 3 mps 714 mmHg 75%
    06:00 -2°C° 0 mm 4 mps 715 mmHg 74%
    07:00 -1°C° 0 mm 4 mps 716 mmHg 73%
    08:00 0°C° 0 mm 5 mps 717 mmHg 66%
    09:00 +1°C° 0 mm 6 mps 719 mmHg 60%
    10:00 +3°C° 0 mm 7 mps 720 mmHg 53%
    11:00 +3°C° 0 mm 7 mps 721 mmHg 50%
    12:00 +3°C° 0 mm 7 mps 722 mmHg 47%
    13:00 +4°C° 0 mm 7 mps 722 mmHg 43%
    14:00 +5°C° 0 mm 5 mps 723 mmHg 45%
    15:00 +5°C° 0 mm 4 mps 723 mmHg 46%
    16:00 +6°C° 0 mm 2 mps 723 mmHg 48%
    17:00 +4°C° 0 mm 2 mps 723 mmHg 54%
    18:00 +4°C° 0 mm 1 mps 724 mmHg 60%
    19:00 +2°C° 0 mm 1 mps 724 mmHg 66%
    20:00 +2°C° 0 mm 1 mps 724 mmHg 67%
    21:00 +2°C° 0 mm 1 mps 724 mmHg 68%
    22:00 +1°C° 0 mm 1 mps 724 mmHg 69%
    23:00 +1°C° 0 mm 1 mps 724 mmHg 70%

    29 February, Saturday

    Time Temperature Precipitation Wind Pressure Humidity
    00:00 +1°C° 0 mm 1 mps 724 mmHg 71%
    01:00 +1°C° 0 mm 1 mps 724 mmHg 72%
    02:00 +1°C° 0 mm 1 mps 723 mmHg 73%
    03:00 +1°C° 0 mm 1 mps 723 mmHg 74%
    04:00 +1°C° 0 mm 1 mps 722 mmHg 75%
    05:00 +1°C° 0 mm 1 mps 722 mmHg 75%
    06:00 +1°C° 0 mm 1 mps 722 mmHg 75%
    07:00 +1°C° 0 mm 1 mps 721 mmHg 75%
    08:00 +2°C° 0 mm 1 mps 721 mmHg 69%
    09:00 +4°C° 0 mm 1 mps 721 mmHg 63%
    10:00 +6°C° 0 mm 1 mps 720 mmHg 58%
    11:00 +7°C° 0 mm 1 mps 720 mmHg 56%
    12:00 +6°C° 0 mm 2 mps 719 mmHg 54%
    13:00 +7°C° 0 mm 2 mps 719 mmHg 52%
    14:00 +7°C° 0 mm 2 mps 718 mmHg 56%
    15:00 +7°C° 0 mm 2 mps 717 mmHg 61%
    16:00 +7°C° 0 mm 2 mps 716 mmHg 65%
    17:00 +6°C° 0 mm 2 mps 716 mmHg 71%
    18:00 +5°C° 0 mm 2 mps 716 mmHg 78%
    19:00 +4°C° 0 mm 2 mps 715 mmHg 84%
    20:00 +4°C° 0 mm 2 mps 715 mmHg 86%
    21:00 +4°C° 0 mm 2 mps 715 mmHg 87%
    22:00 +3°C° 0 mm 2 mps 715 mmHg 89%
    23:00 +3°C° 0 mm 2 mps 715 mmHg 89%

    1 March, Sunday

    Time Temperature Precipitation Wind Pressure Humidity
    00:00 +3°C° 0 mm 2 mps 715 mmHg 89%
    01:00 +3°C° 0 mm 2 mps 714 mmHg 89%
    02:00 +4°C° 0 mm 1 mps 715 mmHg 88%
    03:00 +4°C° 0 mm 1 mps 715 mmHg 87%
    04:00 +5°C° 0 mm 1 mps 715 mmHg 86%
    05:00 +5°C° 0 mm 1 mps 715 mmHg 86%
    06:00 +5°C° 0 mm 1 mps 716 mmHg 86%
    07:00 +5°C° 0 mm 1 mps 716 mmHg 86%
    08:00 +5°C° 0.2 mm 1 mps 716 mmHg 87%
    09:00 +5°C° 0.2 mm 1 mps 716 mmHg 89%
    10:00 +6°C° 0.2 mm 1 mps 716 mmHg 91%
    11:00 +6°C° 0.9 mm 1 mps 716 mmHg 93%
    12:00 +5°C° 0.9 mm 1 mps 715 mmHg 95%
    13:00 +4°C° 0.9 mm 2 mps 715 mmHg 97%
    14:00 +4°C° 3.6 mm 1 mps 715 mmHg 97%
    15:00 +4°C° 3.6 mm 1 mps 714 mmHg 98%
    16:00 +3°C° 3.6 mm 1 mps 714 mmHg 98%
    17:00 +3°C° 2 mm 1 mps 715 mmHg 98%
    18:00 +3°C° 2 mm 1 mps 715 mmHg 98%
    19:00 +3°C° 2 mm 1 mps 716 mmHg 98%
    20:00 +3°C° 0.1 mm 1 mps 716 mmHg 97%
    21:00 +3°C° 0.1 mm 1 mps 716 mmHg 96%
    22:00 +3°C° 0.1 mm 1 mps 717 mmHg 95%
    23:00 +3°C° 0 mm 1 mps 717 mmHg 94%

    2 March, Monday

    Time Temperature Precipitation Wind Pressure Humidity
    00:00 +2°C° 0 mm 1 mps 717 mmHg 92%
    01:00 +2°C° 0 mm 1 mps 717 mmHg 91%
    02:00 +2°C° 0 mm 1 mps 717 mmHg 90%
    03:00 +2°C° 0 mm 1 mps 716 mmHg 89%
    04:00 +2°C° 0 mm 1 mps 716 mmHg 88%
    05:00 +3°C° 0 mm 1 mps 716 mmHg 88%
    06:00 +3°C° 0 mm 1 mps 717 mmHg 89%
    07:00 +3°C° 0 mm 1 mps 717 mmHg 89%
    08:00 +4°C° 0 mm 1 mps 717 mmHg 88%
    09:00 +5°C° 0.1 mm 0 mps 717 mmHg 87%
    10:00 +6°C° 0.1 mm 0 mps 718 mmHg 86%
    11:00 +7°C° 0 mm 0 mps 717 mmHg 84%
    12:00 +8°C° 0 mm 1 mps 717 mmHg 82%
    13:00 +9°C° 0 mm 1 mps 717 mmHg 80%
    14:00 +9°C° 0 mm 1 mps 716 mmHg 82%
    15:00 +8°C° 0 mm 1 mps 716 mmHg 83%
    16:00 +8°C° 0 mm 1 mps 715 mmHg 84%
    17:00 +7°C° 0 mm 1 mps 715 mmHg 87%
    18:00 +6°C° 0 mm 1 mps 715 mmHg 90%
    19:00 +5°C° 0 mm 1 mps 715 mmHg 93%
    20:00 +4°C° 0 mm 0 mps 715 mmHg 93%
    21:00 +4°C° 0 mm 0 mps 714 mmHg 93%
    22:00 +4°C° 0 mm 0 mps 714 mmHg 94%
    23:00 +4°C° 0 mm 0 mps 714 mmHg 94%
    Show more